Regional Weather Roundup
Issued by NWS Kansas City/Pleasant Hill, MO

Home | Current Version | Previous Version | Text Only | Print | Product List | Glossary On
Versions: 1 2 3 4 5 6 7 8 9 10 11 12 13 14 15 16 17 18 19 20 21 22 23 24 25 26 27 28 29 30 31 32 33 34 35 36 37 38 39 40 41 42 43 44 45 46 47 48 49 50
000
ASUS43 KEAX 181610
RWREAX

WEATHER ROUNDUP FOR EASTERN KANSAS AND NORTHWEST MISSOURI
NATIONAL WEATHER SERVICE KANSAS CITY/PLEASANT HILL MO
1000 AM CST WED JAN 18 2017

KSZ040-057-103>105-MOZ028-029-037-043-181700-
...KANSAS CITY METROPOLITAN AREA...

CITY           SKY/WX    TMP DP  RH WIND       PRES   REMARKS
K.C. INTL      FOG       32  30  92 S10       30.14R VSB 1/4 WCI  24
K.C. DOWNTOWN  PTSUNNY   34  34 100 S6        30.17S WCI  29
LEES SUMMIT    FOG       34  34 100 S8        30.17S VSB 1/4 WCI  27
OLATHE - IXD   FOG       32  32 100 SE9       30.16S VSB 1/4 WCI  24
OLATHE - OJC   FOG       31  31 100 S10       30.16S VSB 1/4 WCI  22
LAWRENCE       MOSUNNY   35  35 100 E7        30.15S WCI  29

$$

MOZ001>008-011>017-020>025-030>033-038>040-044>046-053-054-181700-
...NORTHERN AND CENTRAL MISSOURI...

CITY           SKY/WX    TMP DP  RH WIND       PRES   REMARKS
ST. JOSEPH     SUNNY     32  32 100 SE3       30.14S
MOSBY          FOG       32  32 100 S5        30.18S VSB 1/4 WCI  27
WARRENSBURG    CLOUDY    36  36 100 S7        30.19S FOG     WCI  30
WHITEMAN AFB   CLOUDY    37  37 100 SW7       30.18S FOG     WCI  32
CLINTON        CLOUDY    37  37 100 SE7       30.20S FOG     WCI  32
SEDALIA        CLOUDY    37  36  96 S8        30.21S WCI  31
WARSAW         NOT AVBL
CHILLICOTHE      N/A     32  32 100 S8        30.19S WCI  25
KIRKSVILLE     CLOUDY    36  35  96 S9        30.18S FOG     WCI  29

$$

MOZ041-047>049-056>058-063>065-088>090-097-181700-
...EASTERN AND SOUTHERN MISSOURI...

CITY           SKY/WX    TMP DP  RH WIND       PRES   REMARKS
ST. LOUIS INTL MOSUNNY   41  31  67 S5        30.24F
SPIRIT OF STL  PTSUNNY   40  33  76 W7        30.25S
COLUMBIA       CLOUDY    37  33  85 S6        30.21F WCI  32
JEFFERSON CITY CLOUDY    37  32  82 SE7       30.23S WCI  32
ROLLA          MOSUNNY   38  34  85 S6        30.20S WCI  33
OSAGE BEACH    CLOUDY    37  34  89 S5        30.23S WCI  33
SPRINGFIELD    CLOUDY    38  36  92 SE5       30.18S FOG     WCI  34
BRANSON        FOG       37  37 100 E8        30.19S VSB 1/16WCI  31
JOPLIN         PTSUNNY   39  39 100 SE7       30.18F WCI  34
WEST PLAINS    CLOUDY    37  36  96 SE6       30.22F FOG     WCI  32

$$

IAZ060-094-KSZ022-034>040-054-083-096-NEZ052-066-093-181700-
...KANSAS...SOUTHEAST NEBRASKA AND IOWA...

CITY           SKY/WX    TMP DP  RH WIND       PRES   REMARKS
TOPEKA         SUNNY     39  34  82 S5        30.14R
MANHATTAN      SUNNY     32  30  92 CALM      30.10S
EMPORIA        CLOUDY    35  34  96 S12       30.13S WCI  27
CHANUTE        CLOUDY    36  35  96 SE6       30.17F FOG     WCI  31
WICHITA        CLOUDY    40  36  86 S9        30.14R WCI  34
OMAHA          MOSUNNY   33  29  85 S13       30.04S WCI  24
LINCOLN        SUNNY     36  32  85 S6        30.04S WCI  31
FALLS CITY     SUNNY     34  31  88 S8        30.09S WCI  27
LAMONI         FOG       30  29  96 S10       30.12R VSB 1/4 WCI  21
DES MOINES     CLOUDY    32  31  96 S10       30.10S FOG     WCI  24

$$




USA.gov is the U.S. government's official web portal to all federal, state and local government web resources and services.